Year,Month,Day,Hour,Minute,Value (Times are PST for windspeed in km/hr)
2015,08,28,16,25,7.60
2015,08,28,16,26,9.20
2015,08,28,16,27,7.60
2015,08,28,16,28,9.20
2015,08,28,16,29,9.40
2015,08,28,16,30,8.50
2015,08,28,16,31,6.40
2015,08,28,16,32,9.60
2015,08,28,16,33,10.70
2015,08,28,16,34,7.60
2015,08,28,16,35,8.40
2015,08,28,16,36,8.20
2015,08,28,16,37,5.70
2015,08,28,16,38,6.10
2015,08,28,16,39,8.20
2015,08,28,16,40,7.30
2015,08,28,16,41,8.20
2015,08,28,16,42,7.60
2015,08,28,16,43,7.90
2015,08,28,16,44,7.60
2015,08,28,16,45,6.40
2015,08,28,16,46,5.00
2015,08,28,16,47,3.60
2015,08,28,16,48,5.40
2015,08,28,16,49,6.30
2015,08,28,16,50,5.80
2015,08,28,16,51,4.00
2015,08,28,16,52,4.00
2015,08,28,16,53,3.10
2015,08,28,16,54,2.90
2015,08,28,16,55,4.10
2015,08,28,16,56,3.20
2015,08,28,16,57,3.60
2015,08,28,16,58,4.20
2015,08,28,16,59,5.10
2015,08,28,17,00,3.00
2015,08,28,17,01,1.90
2015,08,28,17,02,2.20
2015,08,28,17,03,4.60
2015,08,28,17,04,4.80
2015,08,28,17,05,2.80
2015,08,28,17,06,3.10
2015,08,28,17,07,5.40
2015,08,28,17,08,4.00
2015,08,28,17,09,0.50
2015,08,28,17,10,3.50
2015,08,28,17,11,1.20
2015,08,28,17,12,0.70
2015,08,28,17,13,3.30
2015,08,28,17,14,1.50
2015,08,28,17,15,4.00
2015,08,28,17,16,5.30
2015,08,28,17,17,5.80
2015,08,28,17,18,4.20
2015,08,28,17,19,6.30
2015,08,28,17,20,8.00
2015,08,28,17,21,7.60
2015,08,28,17,22,8.60
2015,08,28,17,23,7.70
2015,08,28,17,24,7.50
2015,08,28,17,25,8.00
2015,08,28,17,26,8.90
2015,08,28,17,27,5.40
2015,08,28,17,28,8.30
2015,08,28,17,29,5.60
2015,08,28,17,30,7.60
2015,08,28,17,31,8.40
2015,08,28,17,32,8.50
2015,08,28,17,33,7.40
2015,08,28,17,34,6.70
2015,08,28,17,35,7.00
2015,08,28,17,36,6.10
2015,08,28,17,37,8.10
2015,08,28,17,38,6.90
2015,08,28,17,39,9.10
2015,08,28,17,40,8.40
2015,08,28,17,41,6.90
2015,08,28,17,42,6.30
2015,08,28,17,43,5.50
2015,08,28,17,44,5.10
2015,08,28,17,45,5.30
2015,08,28,17,46,4.30
2015,08,28,17,47,4.10
2015,08,28,17,48,5.10
2015,08,28,17,49,4.70
2015,08,28,17,50,3.00
2015,08,28,17,51,4.10
2015,08,28,17,52,2.30
2015,08,28,17,53,0.20
2015,08,28,17,54,1.50
2015,08,28,17,55,2.80
2015,08,28,17,56,1.10
2015,08,28,17,57,3.10
2015,08,28,17,58,2.30
2015,08,28,17,59,0.50
2015,08,28,18,00,0.20
2015,08,28,18,01,0.20
2015,08,28,18,02,1.80
2015,08,28,18,03,2.00
2015,08,28,18,04,1.20
2015,08,28,18,05,2.00
2015,08,28,18,06,4.20
2015,08,28,18,07,1.90
2015,08,28,18,08,3.70
2015,08,28,18,09,2.10
2015,08,28,18,10,3.70
2015,08,28,18,11,2.10
2015,08,28,18,12,1.20
2015,08,28,18,13,1.30
2015,08,28,18,14,3.10
2015,08,28,18,15,3.20
2015,08,28,18,16,2.70
2015,08,28,18,17,3.10
2015,08,28,18,18,4.30
2015,08,28,18,19,3.80
2015,08,28,18,20,4.70
2015,08,28,18,21,3.60
2015,08,28,18,22,3.90
2015,08,28,18,23,4.10
2015,08,28,18,24,2.80
2015,08,28,18,25,3.70
2015,08,28,18,26,3.20
2015,08,28,18,27,3.50
2015,08,28,18,28,3.80
2015,08,28,18,29,5.20
2015,08,28,18,30,3.90
2015,08,28,18,31,3.20
2015,08,28,18,32,2.10
2015,08,28,18,33,1.90
2015,08,28,18,34,1.30
2015,08,28,18,35,1.00
2015,08,28,18,36,0.20
2015,08,28,18,37,0.00
2015,08,28,18,38,0.00
2015,08,28,18,39,0.00
2015,08,28,18,40,0.00
2015,08,28,18,41,0.00
2015,08,28,18,42,0.00
2015,08,28,18,43,0.00
2015,08,28,18,44,0.00
2015,08,28,18,45,0.00
2015,08,28,18,46,0.00
2015,08,28,18,47,0.00
2015,08,28,18,48,0.00
2015,08,28,18,49,0.00
2015,08,28,18,50,0.40
2015,08,28,18,51,2.40
2015,08,28,18,52,1.10
2015,08,28,18,53,0.00
2015,08,28,18,54,0.10
2015,08,28,18,55,0.10
2015,08,28,18,56,0.70
2015,08,28,18,57,0.10
2015,08,28,18,58,0.00
2015,08,28,18,59,0.90
2015,08,28,19,00,0.90
2015,08,28,19,01,1.80
2015,08,28,19,02,1.90
2015,08,28,19,03,1.70
2015,08,28,19,04,2.50
2015,08,28,19,05,3.00
2015,08,28,19,06,3.00
2015,08,28,19,07,3.30
2015,08,28,19,08,2.40
2015,08,28,19,09,0.80
2015,08,28,19,10,0.00
2015,08,28,19,11,1.10
2015,08,28,19,12,0.00
2015,08,28,19,13,0.00
2015,08,28,19,14,0.00
2015,08,28,19,15,0.00
2015,08,28,19,16,0.00
2015,08,28,19,17,0.00
2015,08,28,19,18,0.10
2015,08,28,19,19,0.00
2015,08,28,19,20,0.00
2015,08,28,19,21,0.00
2015,08,28,19,22,0.00
2015,08,28,19,23,0.00
2015,08,28,19,24,0.00
2015,08,28,19,25,0.00
2015,08,28,19,26,0.20
2015,08,28,19,27,0.10
2015,08,28,19,28,0.00
2015,08,28,19,29,0.00
2015,08,28,19,30,0.00
2015,08,28,19,31,0.00
2015,08,28,19,32,0.00
2015,08,28,19,33,0.00
2015,08,28,19,34,0.20
2015,08,28,19,35,0.00
2015,08,28,19,36,0.00
2015,08,28,19,37,0.00
2015,08,28,19,38,0.20
2015,08,28,19,39,1.20
2015,08,28,19,40,0.50
2015,08,28,19,41,0.00
2015,08,28,19,42,0.10
2015,08,28,19,43,0.00
2015,08,28,19,44,0.00
2015,08,28,19,45,0.00
2015,08,28,19,46,0.00
2015,08,28,19,47,0.00
2015,08,28,19,48,0.00
2015,08,28,19,49,0.00
2015,08,28,19,50,0.00
2015,08,28,19,51,0.00
2015,08,28,19,52,0.00
2015,08,28,19,53,0.00
2015,08,28,19,54,0.00
2015,08,28,19,55,0.00
2015,08,28,19,56,0.00
2015,08,28,19,57,0.10
2015,08,28,19,58,0.00
2015,08,28,19,59,0.00
2015,08,28,20,00,0.00
2015,08,28,20,01,0.00
2015,08,28,20,02,0.00
2015,08,28,20,03,0.00
2015,08,28,20,04,0.00
2015,08,28,20,05,0.00
2015,08,28,20,06,0.00
2015,08,28,20,07,0.00
2015,08,28,20,08,0.00
2015,08,28,20,09,0.00
2015,08,28,20,10,0.00
2015,08,28,20,11,0.00
2015,08,28,20,12,0.00
2015,08,28,20,13,0.00
2015,08,28,20,14,0.00
2015,08,28,20,15,0.00
2015,08,28,20,16,0.00
2015,08,28,20,17,0.00
2015,08,28,20,18,0.30
2015,08,28,20,19,2.30
2015,08,28,20,20,2.60
2015,08,28,20,21,0.60
2015,08,28,20,22,0.00
2015,08,28,20,23,0.00
2015,08,28,20,24,0.10
2015,08,28,20,25,0.00
2015,08,28,20,26,0.10
2015,08,28,20,27,0.20
2015,08,28,20,28,1.70
2015,08,28,20,29,1.80
2015,08,28,20,30,3.00
2015,08,28,20,31,3.20
2015,08,28,20,32,2.40
2015,08,28,20,33,4.30
2015,08,28,20,34,3.00
2015,08,28,20,35,3.10
2015,08,28,20,36,1.30
2015,08,28,20,37,3.30
2015,08,28,20,38,1.40
2015,08,28,20,39,0.20
2015,08,28,20,40,0.00
2015,08,28,20,41,0.00
2015,08,28,20,42,0.00
2015,08,28,20,43,0.00
2015,08,28,20,44,0.00
2015,08,28,20,45,0.00
2015,08,28,20,46,0.00
2015,08,28,20,47,0.30
2015,08,28,20,48,0.30
2015,08,28,20,49,0.80
2015,08,28,20,50,0.10
2015,08,28,20,51,0.20
2015,08,28,20,52,2.50
2015,08,28,20,53,3.00
2015,08,28,20,54,2.50
2015,08,28,20,55,1.80
2015,08,28,20,56,1.20
2015,08,28,20,57,0.80
2015,08,28,20,58,0.10
2015,08,28,20,59,0.00
2015,08,28,21,00,0.00
2015,08,28,21,01,0.00
2015,08,28,21,02,0.20
2015,08,28,21,03,0.00
2015,08,28,21,04,2.20
2015,08,28,21,05,3.00
2015,08,28,21,06,2.80
2015,08,28,21,07,0.30
2015,08,28,21,08,1.90
2015,08,28,21,09,1.10
2015,08,28,21,10,0.00
2015,08,28,21,11,0.10
2015,08,28,21,12,0.00
2015,08,28,21,13,0.00
2015,08,28,21,14,0.00
2015,08,28,21,15,0.00
2015,08,28,21,16,0.00
2015,08,28,21,17,0.00
2015,08,28,21,18,0.00
2015,08,28,21,19,0.00
2015,08,28,21,20,0.00
2015,08,28,21,21,0.00
2015,08,28,21,22,0.00
2015,08,28,21,23,0.00
2015,08,28,21,24,0.00
2015,08,28,21,25,0.00
2015,08,28,21,26,0.00
2015,08,28,21,27,0.00
2015,08,28,21,28,0.00
2015,08,28,21,29,0.00
2015,08,28,21,30,0.00
2015,08,28,21,31,0.80
2015,08,28,21,32,1.20
2015,08,28,21,33,1.30
2015,08,28,21,34,0.10
2015,08,28,21,35,0.20
2015,08,28,21,36,0.60
2015,08,28,21,37,0.70
2015,08,28,21,38,0.20
2015,08,28,21,39,1.50
2015,08,28,21,40,2.30
2015,08,28,21,41,2.10
2015,08,28,21,42,1.40
2015,08,28,21,43,0.40
2015,08,28,21,44,0.60
2015,08,28,21,45,1.10
2015,08,28,21,46,0.00
2015,08,28,21,47,0.00
2015,08,28,21,48,0.10
2015,08,28,21,49,1.80
2015,08,28,21,50,1.20
2015,08,28,21,51,0.10
2015,08,28,21,52,0.50
2015,08,28,21,53,2.20
2015,08,28,21,54,1.90
2015,08,28,21,55,1.30
2015,08,28,21,56,0.30
2015,08,28,21,57,0.20
2015,08,28,21,58,0.10
2015,08,28,21,59,0.00
2015,08,28,22,00,0.00
2015,08,28,22,01,0.00
2015,08,28,22,02,0.00
2015,08,28,22,03,0.00
2015,08,28,22,04,0.00
2015,08,28,22,05,0.00
2015,08,28,22,06,0.00
2015,08,28,22,07,0.00
2015,08,28,22,08,0.00
2015,08,28,22,09,0.00
2015,08,28,22,10,0.00
2015,08,28,22,11,0.00
2015,08,28,22,12,0.00
2015,08,28,22,13,0.00
2015,08,28,22,14,0.00
2015,08,28,22,15,0.00
2015,08,28,22,16,0.00
2015,08,28,22,17,0.00
2015,08,28,22,18,0.00
2015,08,28,22,19,0.00
2015,08,28,22,20,0.00
2015,08,28,22,21,0.00
2015,08,28,22,22,0.00
2015,08,28,22,23,0.00
2015,08,28,22,24,0.00
2015,08,28,22,25,0.00
2015,08,28,22,26,0.00
2015,08,28,22,27,0.00
2015,08,28,22,28,0.00
2015,08,28,22,29,0.00
2015,08,28,22,30,0.00
2015,08,28,22,31,0.00
2015,08,28,22,32,0.00
2015,08,28,22,33,0.00
2015,08,28,22,34,0.00
2015,08,28,22,35,0.00
2015,08,28,22,36,0.30
2015,08,28,22,37,1.00
2015,08,28,22,38,1.10
2015,08,28,22,39,1.50
2015,08,28,22,40,1.80
2015,08,28,22,41,2.20
2015,08,28,22,42,2.80
2015,08,28,22,43,3.70
2015,08,28,22,44,3.50
2015,08,28,22,45,3.40
2015,08,28,22,46,3.60
2015,08,28,22,47,3.70
2015,08,28,22,48,4.30
2015,08,28,22,49,6.30
2015,08,28,22,50,2.80
2015,08,28,22,51,3.40
2015,08,28,22,52,5.20
2015,08,28,22,53,5.10
2015,08,28,22,54,5.20
2015,08,28,22,55,4.60
2015,08,28,22,56,3.60
2015,08,28,22,57,5.60
2015,08,28,22,58,6.00
2015,08,28,22,59,6.00
2015,08,28,23,00,5.00
2015,08,28,23,01,5.60
2015,08,28,23,02,5.70
2015,08,28,23,03,4.10
2015,08,28,23,04,4.80
2015,08,28,23,05,4.80
2015,08,28,23,06,3.10
2015,08,28,23,07,1.50
2015,08,28,23,08,2.70
2015,08,28,23,09,3.40
2015,08,28,23,10,3.90
2015,08,28,23,11,3.60
2015,08,28,23,12,3.70
2015,08,28,23,13,3.40
2015,08,28,23,14,1.00
2015,08,28,23,15,2.70
2015,08,28,23,16,1.30
2015,08,28,23,17,4.30
2015,08,28,23,18,3.70
2015,08,28,23,19,7.60
2015,08,28,23,20,4.90
2015,08,28,23,21,5.10
2015,08,28,23,22,5.80
2015,08,28,23,23,7.20
2015,08,28,23,24,6.00
2015,08,28,23,25,5.10
2015,08,28,23,26,6.80
2015,08,28,23,27,4.30
2015,08,28,23,28,5.90
2015,08,28,23,29,6.40
2015,08,28,23,30,6.20
2015,08,28,23,31,5.70
2015,08,28,23,32,4.90
2015,08,28,23,33,4.70
2015,08,28,23,34,3.90
2015,08,28,23,35,4.80
2015,08,28,23,36,4.30
2015,08,28,23,37,5.50
2015,08,28,23,38,4.60
2015,08,28,23,39,3.70
2015,08,28,23,40,4.90
2015,08,28,23,41,4.60
2015,08,28,23,42,3.10
2015,08,28,23,43,3.00
2015,08,28,23,44,4.10
2015,08,28,23,45,2.70
2015,08,28,23,46,3.20
2015,08,28,23,47,3.40
2015,08,28,23,48,3.50
2015,08,28,23,49,3.90
2015,08,28,23,50,4.40
2015,08,28,23,51,4.10
2015,08,28,23,52,4.60
2015,08,28,23,53,4.70
2015,08,28,23,54,5.50
2015,08,28,23,55,5.40
2015,08,28,23,56,5.40
2015,08,28,23,57,4.00
2015,08,28,23,58,4.40
2015,08,28,23,59,6.90
